Weather History for White Plains, NY

Change the Weather History Date:

Sunday, March 3, 2013

  Actual Average Record
Temperature  
Mean Temperature 36 °F -  
Max Temperature 42 °F 40 °F 61 °F (1991)
Min Temperature 30 °F 26 °F 10 °F (2003)
Degree Days  
Heating Degree Days 29    
Moisture  
Dew Point 18 °F    
Average Humidity 48    
Maximum Humidity 69    
Minimum Humidity 35    
Precipitation  
Precipitation 0.00 in - - ()
Sea Level Pressure  
Sea Level Pressure 29.70 in    
Wind  
Wind Speed 13 mph (NW)    
Max Wind Speed 20 mph    
Max Gust Speed 25 mph    
Visibility 10 miles    
Events Snow    
Averages and records for this station are not official NWS values.
T = Trace of Precipitation, MM = Missing Value Source: NWS Daily Summary

Daily Weather History Graph

Daily Weather History Graph

Search for Another Location

Airport:

Trip Planner

Search our weather history database for the weather conditions in past years. The results will help you decide how hot, cold, wet, or windy it might be!

Date:

Astronomy

Mar. 03, 2013 Rise Set
Actual Time 6:25 AM EST 5:48 PM EST
Civil Twilight 5:58 AM EST 6:15 PM EST
Nautical Twilight 5:26 AM EST 6:47 PM EST
Astronomical Twilight 4:54 AM EST 7:19 PM EST
Moon No Moon Rise 9:35 AM EST (3/3)
Length of Visible Light 12h 17m
Length of Day
11h 22m
Waning Gibbous, 64% of the Moon is Illuminated
Mar 3
Waning Gibbous
Mar 4
Last Quarter
Mar 11
New
Mar 19
First Quarter
Mar 27
Full

Hourly Weather History & Observations

Time (EST) Temp. Windchill Dew Point Humidity Pressure Visibility Wind Dir Wind Speed Gust Speed Precip Events Conditions
12:56 AM 34.0 °F 25.0 °F 21.9 °F 61% 29.72 in 10.0 mi NW 12.7 mph - N/A   Mostly Cloudy
1:56 AM 33.1 °F 24.4 °F 21.0 °F 61% 29.71 in 10.0 mi NW 11.5 mph 19.6 mph N/A   Mostly Cloudy
2:56 AM 30.9 °F 22.2 °F 21.9 °F 69% 29.70 in 7.0 mi NW 10.4 mph - 0.00 in Snow Light Snow
3:56 AM 37.0 °F 29.3 °F 19.0 °F 48% 29.70 in 7.0 mi NW 11.5 mph - 0.00 in Snow Light Snow
4:56 AM 36.0 °F 27.5 °F 18.0 °F 48% 29.70 in 9.0 mi NW 12.7 mph - 0.00 in   Overcast
5:56 AM 35.1 °F 27.9 °F 17.1 °F 48% 29.71 in 10.0 mi NW 9.2 mph - N/A   Overcast
6:56 AM 41.0 °F 33.9 °F 16.0 °F 36% 29.72 in 10.0 mi WNW 12.7 mph - N/A   Mostly Cloudy
7:56 AM 42.1 °F 36.6 °F 16.0 °F 35% 29.72 in 10.0 mi NW 9.2 mph - N/A   Overcast
8:56 AM 35.6 °F 26.2 °F 16.0 °F 45% 29.71 in 10.0 mi NW 15.0 mph - N/A   Mostly Cloudy
9:56 AM 37.9 °F 28.9 °F 16.0 °F 41% 29.70 in 10.0 mi NW 16.1 mph - N/A   Mostly Cloudy
10:56 AM 37.9 °F 30.0 °F 17.1 °F 43% 29.70 in 10.0 mi NW 12.7 mph - N/A   Scattered Clouds
11:56 AM 37.9 °F 30.5 °F 17.1 °F 43% 29.69 in 10.0 mi WNW 11.5 mph - N/A   Scattered Clouds
12:56 PM 39.0 °F 31.0 °F 19.0 °F 45% 29.66 in 10.0 mi NW 13.8 mph 24.2 mph N/A   Scattered Clouds
1:56 PM 39.0 °F 31.0 °F 18.0 °F 43% 29.65 in 10.0 mi NW 13.8 mph - N/A   Mostly Cloudy
2:56 PM 39.0 °F 31.4 °F 18.0 °F 43% 29.65 in 10.0 mi NNW 12.7 mph 18.4 mph N/A   Mostly Cloudy
3:56 PM 39.0 °F 29.9 °F 19.9 °F 46% 29.66 in 10.0 mi NNW 17.3 mph - N/A   Overcast
4:56 PM 37.0 °F 28.1 °F 19.9 °F 50% 29.67 in 10.0 mi NW 15.0 mph - N/A   Mostly Cloudy
5:56 PM 36.7 °F 27.6 °F 19.0 °F 49% 29.68 in 10.0 mi NW 15.0 mph 24.2 mph N/A   Mostly Cloudy
6:56 PM 36.0 °F 25.3 °F 19.0 °F 50% 29.69 in 10.0 mi NW 19.6 mph 23.0 mph N/A   Mostly Cloudy
7:56 PM 34.9 °F 24.9 °F 18.0 °F 50% 29.71 in 10.0 mi NW 16.1 mph 25.3 mph N/A   Overcast
8:56 PM 35.1 °F 25.5 °F 17.1 °F 48% 29.72 in 10.0 mi NW 15.0 mph - N/A   Scattered Clouds
9:56 PM 36.0 °F 26.0 °F 16.0 °F 44% 29.73 in 10.0 mi NW 17.3 mph - N/A   Scattered Clouds
10:56 PM 32.4 °F 21.3 °F 16.0 °F 51% 29.73 in 10.0 mi NW 17.3 mph 23.0 mph N/A   Clear
11:56 PM 30.6 °F 19.4 °F 16.0 °F 55% 29.73 in 10.0 mi NW 16.1 mph - N/A   Overcast